Satellite: RS-38
Catalog number: 35869
Epoch time: 10245.78761686
Element set: 630
Inclination: 098.7498 deg
RA of node: 299.0409 deg
Eccentricity: 0.0005175
Arg of perigee: 133.5650 deg
Mean anomaly: 226.5927 deg
Mean motion: 14.21987762 rev/day
Decay rate: 1.77e-06 rev/day^2
Epoch rev: 4975
Checksum: 361
/EX
More information about the Keps
mailing list